Regional Weather Roundup
Issued by NWS

Home | Current Version | Previous Version | Graphics & Text | Print | Product List | Glossary On
Versions: 1 2 3 4 5 6 7 8 9 10 11 12 13 14 15 16 17 18 19 20 21 22 23 24 25 26 27 28 29 30 31 32 33 34 35 36 37 38 39 40 41 42 43 44 45 46 47 48 49 50
000
ASUS43 KFSD 231702
RWRSD

WEATHER ROUNDUP FOR SOUTH DAKOTA
NATIONAL WEATHER SERVICE SIOUX FALLS SD
1200 PM CDT MON OCT 23 2017

NOTE: "FAIR" INDICATES FEW OR NO CLOUDS BELOW 12,000 FEET WITH NO
SIGNIFICANT WEATHER AND/OR OBSTRUCTIONS TO VISIBILITY.


SDZ001>005-009-010-012>017-231800-
NORTHWEST AND NORTH CENTRAL SOUTH DAKOTA

CITY           SKY/WX    TMP DP  RH WIND       PRES   REMARKS
BUFFALO          N/A     51  27  39 NW36G43   30.20R
FAITH            N/A     53  30  41 NW33G39   30.19
MOBRIDGE       MOSUNNY   54  35  48 NW25G35     N/A
$$

SDZ012>016-024>037-041>051-057-063-072>074-231800-
SOUTHWEST AND SOUTH CENTRAL SOUTH DAKOTA

CITY           SKY/WX    TMP DP  RH WIND       PRES   REMARKS
RAPID CTY ARPT SUNNY     55  21  26 NW36G44   30.27F
PIERRE         SUNNY     56  33  42 NW33G45   30.12R
CUSTER         SUNNY     44  16  32 NW22G36   30.31S
ELLSWORTH AFB  SUNNY     55  21  27 NW32G43   30.26S
PHILIP         SUNNY     57  28  33 NW29G43   30.21R
PINE RIDGE     SUNNY     56  22  26 NW28G37   30.31S
SPEARFISH      FAIR      50  21  32 NW26G39   30.32S
WINNER         FAIR      58  32  37 NW32G40   30.16S
$$

SDZ004>011-016>023-039-040-231800-
NORTHEAST SOUTH DAKOTA

CITY           SKY/WX    TMP DP  RH WIND       PRES   REMARKS
ABERDEEN       MOSUNNY   52  35  52 NW26G32   30.05R
WATERTOWN      CLOUDY    47  37  68 NW29G37   29.96R
BROOKINGS      CLOUDY    49  38  65 NW22G36   29.96R
SISSETON         N/A     49  38  65 NW25G38   29.94R
$$

SDZ017-020-022-023-036>040-048>070-231800-
SOUTHEAST SOUTH DAKOTA

CITY           SKY/WX    TMP DP  RH WIND       PRES   REMARKS
SIOUX FALLS    PTSUNNY   55  38  52 NW24G39   29.98R
HURON          PTSUNNY   54  38  54 N31G39    30.03R
MITCHELL       PTSUNNY   56  35  45 NW30G45   30.06R
YANKTON        SUNNY     58  37  45 NW32G41   30.02F
$$

ABBREVIATIONS USED IN REMARKS
   TC - TEMPERATURE IN CELSIUS
  WCI - WIND CHILL INDEX
   HX - HEAT INDEX
  VSB - VISIBILITY




USA.gov is the U.S. government's official web portal to all federal, state and local government web resources and services.